Tracking 19570 objects as of 22-Feb-2019
HD Live streaming from Space Station
objects crossing your sky now

NADEZHDA 7

Track NADEZHDA 7 now!
10-day predictions
NADEZHDA 7 is classified as:


NORAD ID: 27534
Int'l Code: 2002-046A
Perigee: 970.5 km
Apogee: 1,023.5 km
Inclination: 82.9 °
Period: 104.9 minutes
Semi major axis: 7368 km
RCS: 1.9312 m2 (large)
Launch date: September 26, 2002
Source: Commonwealth of Independent States (former USSR) (CIS)
Launch site: PLESETSK MISSILE AND SPACE COMPLEX (PKMTR)
aabbcc
Your satellite tracking list
Your tracking list is empty




NASA's NSSDC Master Catalog

Two Line Element Set (TLE):
1 27534U 02046A   19052.21746293  .00000044  00000-0  30995-4 0  9992
2 27534  82.9375 145.5449 0036026 198.0372 220.9655 13.72707558821922
Source of the keplerian elements: AFSPC